Location: Cournols
(45.6475°N, 3.0328°E)
Time: 14:17:42
(UTC+00:00)

Daily predictions for brighter satellites

Satellite Brightness Start Highest point End
(mag) Time Altitude Azimuth Time Altitude Azimuth Time Altitude Azimuth
Cosmos 1536 Rocket 4.1 20:10:02 10° SSE 20:14:02 38° E 20:18:06 10° NNE
USA 245 4.2 20:13:14 10° SE 20:16:40 28° ENE 20:19:32 10° N
Cosmos 1980 Rocket 3.7 20:13:17 10° N 20:17:56 25° NE 20:22:32 10° ESE
CARTOSAT-1 4.1 20:13:52 10° SE 20:17:57 44° ENE 20:22:04 10° N
Cosmos 1697 Rocket 3.4 20:12:46 10° NNW 20:18:05 42° NE 20:23:23 10° SE
Cosmos 1975 Rocket 4.1 20:15:46 10° SSW 20:20:05 51° WNW 20:24:24 10° N
Cosmos 1452 Rocket 3.6 20:16:56 10° S 20:22:06 62° ESE 20:27:18 10° NNE
USA 276 3.6 20:19:17 10° WNW 20:22:07 35° N 20:24:57 10° ENE
TSX-5 4.5 20:20:08 10° SSW 20:24:40 86° ESE 20:30:38 10° NNE
Lacrosse 5 3.1 20:20:46 10° WNW 20:25:22 35° SW 20:29:57 10° SSE
Cosmos 1110 Rocket 4.4 20:21:59 10° S 20:26:56 43° ESE 20:31:57 10° NNE
ERS-1 Rocket 4.1 20:22:47 10° SE 20:27:09 30° ENE 20:31:31 10° N
SL-24 R/B 4.3 20:26:26 10° SSE 20:30:50 79° ENE 20:35:55 10° N
COSMOS 2406 4.0 20:26:07 10° SSE 20:31:05 31° ESE 20:36:04 10° NE
Cosmos 1544 Rocket 4.0 20:32:23 10° NNW 20:36:41 63° W 20:40:58 10° S
PSLV R/B 4.4 20:33:10 10° N 20:37:18 67° WNW 20:41:27 10° SSW
Cosmos 2074 Rocket 4.1 20:32:41 10° N 20:38:57 66° E 20:45:08 10° SSE
Cosmos 1833 Rocket 2.7 20:36:16 10° S 20:41:47 63° ESE 20:47:21 10° NNE
Cosmos 1703 3.3 20:40:06 10° S 20:43:53 61° E 20:47:42 10° NNE
Nadezhda 1 Rocket 4.2 20:43:24 10° SSE 20:49:11 49° E 20:55:01 10° NNE
USA 267 4.5 20:50:18 10° E 20:54:38 18° ESE 20:58:23 12° SSE
RESURS DK-1 2.7 20:51:24 10° NW 20:55:30 62° WSW 20:59:05 13° SSE
Cosmos 1867 4.3 20:55:44 10° NNW 21:00:59 44° NE 21:05:33 13° ESE
Cosmos 2084 Rocket 3.4 21:00:08 10° NW 21:04:02 66° NE 21:06:56 18° SE
X-37B 0.7 21:02:12 10° W 21:04:54 44° SSW 21:06:14 24° SE
Helios 1A Rocket 3.0 21:03:01 17° SSE 21:06:06 66° ENE 21:10:11 10° N
SL-8 R/B 4.0 21:02:15 10° WNW 21:06:56 54° SSW 21:10:19 18° SE
Cosmos 2154 Rocket 4.0 21:05:43 10° N 21:11:58 82° E 21:17:21 14° S
Cosmos 1455 4.4 21:11:20 10° NW 21:14:20 22° W 21:17:18 10° SW
Ariane Rocket 4.2 21:10:19 10° SSW 21:15:04 39° W 21:19:51 10° NNW
Cosmos 1328 3.8 21:13:36 16° S 21:16:39 62° E 21:20:37 10° NNE
Cosmos 2082 Rocket 2.4 21:12:19 10° S 21:17:48 51° ESE 21:23:18 10° NE
Cosmos 2360 4.4 21:13:47 10° NNW 21:19:31 73° WSW 21:23:53 18° SSE
SPOT 3 Rocket 4.1 21:15:15 11° S 21:20:13 55° W 21:25:22 10° NNW
CZ-2C R/B 3.7 21:17:19 10° NNE 21:21:51 64° ESE 21:25:23 16° S
Cosmos 2228 3.4 21:19:43 10° NNW 21:23:54 60° W 21:27:18 15° S
Cosmos 1892 Rocket 3.8 21:21:09 20° SSE 21:23:55 50° E 21:28:09 10° NNE
Cosmos 2360 Rocket 4.5 21:25:40 10° N 21:28:39 14° NE 21:31:38 10° ENE
Resurs 01 Rocket 4.1 21:27:35 10° SW 21:30:32 17° W 21:33:29 10° NW
Cosmos 2058 Rocket 3.5 21:27:45 10° N 21:32:03 47° ENE 21:34:19 25° SE
SPOT 5 3.3 21:37:57 17° S 21:41:06 48° W 21:45:18 10° NNW
Terra 1.9 21:39:42 22° S 21:42:49 73° WSW 21:47:35 10° NNW
Spot 2 Rocket 4.2 21:41:30 16° S 21:45:26 49° W 21:50:24 10° NNW
Cosmos 1892 2.8 21:44:17 33° SSE 21:45:41 54° E 21:49:22 10° NNE
SJ 16-02 3.5 21:43:59 10° NNE 21:46:51 17° NE 21:49:28 11° E
FALCON 9 DEB 3.8 21:45:14 10° NW 21:48:25 47° NNE 21:50:07 23° E
Cosmos 2366 rocket 4.4 21:42:54 10° N 21:49:06 54° ENE 21:52:47 25° SE
Cosmos 2218 Rocket 4.3 21:47:47 10° N 21:54:07 59° ENE 21:57:46 26° SSE
ASTEX 1 3.5 21:51:18 10° NNE 21:56:17 63° E 21:58:45 29° SSE
USA 276 3.0 21:55:19 10° WNW 21:58:15 44° NNE 21:59:52 22° ENE
ARIANE 5 R/B 2.9 21:58:45 27° S 22:01:04 63° WSW 22:05:27 10° NNW
Cosmos 1697 Rocket 3.9 21:56:58 10° NW 22:01:55 33° WSW 22:05:32 16° SSW
Cosmos 1980 Rocket 2.4 21:56:46 10° NNW 22:02:25 64° WSW 22:05:29 27° S
GP-B 3.1 21:58:43 10° N 22:03:10 72° E 22:05:00 34° SSE
SL-16 R/B 3.1 21:58:25 10° NNW 22:03:46 40° NE 22:07:09 20° ESE
ERS-1 Rocket 4.1 22:02:19 16° SSW 22:05:49 37° W 22:10:29 10° NNW
Cosmos 1959 Rocket 4.5 22:00:47 10° N 22:06:53 69° E 22:10:08 29° SSE
Cosmos 2369 4.2 22:02:51 10° NW 22:08:24 51° WSW 22:11:30 25° S
ATLAS 5 CENTAUR R/B 1.0 22:08:26 32° SSW 22:10:01 73° SE 22:14:07 10° NE
Cosmos 2341 Rocket 4.1 22:05:31 10° NNW 22:11:49 76° W 22:15:35 26° S
COSMOS 2406 4.3 22:09:41 10° SW 22:15:12 45° WNW 22:20:44 10° NNE
Cosmos 864 Rocket 4.4 22:10:42 10° N 22:16:56 82° E 22:20:11 30° SSE
In-Cosmos 22 Rocket 4.1 22:14:45 27° S 22:17:53 86° E 22:23:20 10° NNE
Cosmos 1503 Rocket 4.4 22:15:31 10° NNW 22:20:42 53° ENE 22:23:03 30° SE
Cosmos 1408 3.5 22:19:29 25° SW 22:21:00 40° WNW 22:24:18 10° N
Okean 1-7 Rocket 3.5 22:19:49 38° S 22:21:30 82° E 22:26:02 10° N
Cosmos 968 Rocket 4.4 22:19:11 10° NW 22:24:02 40° WSW 22:26:32 25° SSW
Cosmos 1869 3.1 22:21:57 10° N 22:25:51 88° ENE 22:26:47 52° S
Cosmos 1758 Rocket 4.2 22:25:31 35° ESE 22:26:19 39° E 22:30:25 10° NNE
Cosmos 1825 2.1 22:28:50 49° SSW 22:29:45 79° W 22:33:31 10° N
Meteor 1-27 4.2 22:26:57 10° NNW 22:32:31 76° W 22:35:01 34° S
Spot 4 4.0 22:35:11 38° SE 22:36:49 61° ENE 22:41:34 10° N
Cosmos 1812 Rocket 3.7 22:33:33 10° N 22:38:00 66° E 22:39:08 46° SE
USA 267 3.2 22:31:53 10° NE 22:38:26 68° SE 22:44:56 10° SW
Cosmos 2181 Rocket 4.1 22:34:40 24° SSW 22:38:29 71° W 22:44:45 10° N
Cosmos 2322 Rocket 2.7 22:33:04 10° NNW 22:38:38 53° ENE 22:41:25 28° ESE
Cosmos-2242 3.2 22:38:05 10° N 22:42:17 56° ENE 22:43:11 46° SE
BREEZE-M DEB (TANK) 4.0 22:39:10 10° WNW 22:42:17 65° NNE 22:53:45 10° E
Cosmos 1821 Rocket 4.1 22:37:31 10° N 22:43:44 67° E 22:46:22 35° SSE
Cosmos 1602 Rocket 3.4 22:48:53 51° S 22:49:58 88° WNW 22:54:19 10° N
Cosmos 2278 4.3 22:45:15 10° NW 22:50:40 45° WSW 22:52:47 32° SSW
Cosmos 2333 Rocket 3.6 22:51:24 10° N 22:56:33 32° NE 23:00:26 16° ESE
ALOS 2 2.7 23:00:42 49° SE 23:01:42 66° ENE 23:06:04 10° N
Cosmos 2082 Rocket 4.0 22:57:11 10° WSW 23:02:09 30° NW 23:07:07 10° N
Nadezhda 3 Rocket 3.9 23:02:12 38° S 23:04:41 77° E 23:10:51 10° N
Gbstr 26 Del rocket 3.1 23:05:11 55° SE 23:05:11 55° SE 23:09:54 10° ENE
Cosmos 1340 Rocket 3.6 23:05:54 36° E 23:05:55 36° E 23:09:35 10° NNE
Cosmos 1606 2.5 23:07:09 10° N 23:11:02 85° E 23:11:18 76° SSE
USA 234 3.4 23:07:03 16° ESE 23:12:29 74° NNE 23:19:02 10° NW
Cosmos 1633 3.2 23:12:29 42° W 23:12:48 43° WNW 23:16:08 10° N
Cosmos 2360 Rocket 2.4 23:08:12 10° NNW 23:13:51 64° ENE 23:16:14 35° SE
BREEZE-M DEB (TANK) 3.9 23:03:32 10° WSW 23:14:40 73° NNW 23:18:05 10° ENE
Cosmos 1953 Rocket 3.9 23:15:54 45° ESE 23:16:27 48° E 23:20:42 10° NNE
Cosmos 1825 Rocket 3.4 23:24:44 63° SSW 23:25:25 86° W 23:29:47 10° N
SJ 16-02 1.4 23:21:27 10° NNW 23:25:50 61° WSW 23:26:24 55° SW
H-2A R/B 3.5 23:21:54 10° N 23:26:07 75° WNW 23:26:52 57° SW
Cosmos 2058 2.8 23:28:04 67° SSW 23:28:35 85° W 23:32:47 10° N
Cosmos 1833 4.3 23:27:13 45° SSE 23:28:35 58° ESE 23:34:05 10° NNE
PSLV R/B 4.4 23:24:08 10° NNE 23:28:38 41° E 23:29:18 39° ESE
Cosmos 2237 4.3 23:27:23 10° NNW 23:33:03 64° WSW 23:34:40 45° S
Cosmos 2221 2.8 23:35:12 10° N 23:39:30 57° ENE 23:40:15 49° ESE
Meteor 2-2 Rocket 4.4 23:36:16 10° NNW 23:42:18 77° W 23:44:23 43° S
COSMOS 2428 4.0 23:37:56 10° NNW 23:43:12 36° NE 23:47:19 15° ESE
ISS -1.8 23:47:45 21° ENE 23:47:45 21° ENE 23:49:04 10° ENE
ADEOS Rocket 3.7 23:42:56 35° SSW 23:46:12 62° W 23:53:54 10° NNW
Cosmos 1842 Rocket 4.0 23:43:01 10° N 23:47:25 52° ENE 23:48:21 44° ESE
ERS-2 2.0 23:43:59 10° NNE 23:47:29 84° NNE 23:47:29 84° NNE
SL-16 R/B 3.0 23:42:42 10° NW 23:47:47 35° WSW 23:49:00 31° SW
COSMOS 2487 3.8 23:49:36 28° ENE 23:49:36 28° ENE 23:51:27 10° NE
Nimbus 7 Rocket 4.5 23:44:13 10° NNE 23:50:10 69° ESE 23:52:10 43° S
SL-4 R/B 2.0 23:49:35 52° WNW 23:50:10 62° NNW 23:53:51 10° ENE
Cosmos 2219 Rocket 2.7 23:44:41 10° NNW 23:50:17 55° ENE 23:53:12 27° SE
SL-27 R/B 3.2 23:53:43 40° ENE 23:53:43 40° ENE 23:56:11 10° NNE
ATLAS 5 CENTAUR R/B 4.1 23:52:19 10° WNW 23:55:06 18° NNW 23:58:10 10° NNE
